Погода в Пыщуге

Россия / Костромская область     58°53′13″N   45°43′07″E
темп.,
°C
ветер,
м/с
пор.,
м/с
влажн.,
%
обл.,
%
осадки,
мм/ч
давл.,
гПа
погр.,
м
12 мая, ср
ср1200:00+8вюв1175100 0.0 103010
03:00+7вюв11766 0.0 103110
06:00+10в12660 0.0 103182
09:00+17ююв11480 0.0 1030436
12:00+21вюв11420 0.0 1029843
15:00+22вюв22420 0.0 10281140
18:00+20вюв23610 0.0 102783
21:00+14в22760 0.0 102717
13 мая, чт
чт1300:00+13вюв228386 0.0 102734
03:00+12вюв24874 0.0 102766
06:00+15юв258140 0.0 1027153
09:00+21юв365517 0.0 1026551
12:00+24ююв463996 0.0 10242612
15:00+24ююв374585 0.0 10231896
18:00+22ююв38545 0.0 1022393
21:00+16юв2978100 0.0 1021160
14 мая, пт
пт1400:00+15юв2979100 0.0 1020231
03:00+14юв2985100 0.0 1020231
06:00+15ю388066 0.0 1020435
09:00+19ююз356854 0.0 1020997
12:00+23юз35486 0.0 10191697
15:00+23юз4543100 0.0 10191881
18:00+20зюз2262100 0.0 101851
21:00+15зюз117846 0.0 101811
15 мая, сб
сб1500:00+14ююз11858 0.0 101811
03:00+12ююв1191100 0.0 101810
06:00+15юв248497 0.1 1017153
09:00+21ююв3563100 0.1 1016699
12:00+25ю355269 0.0 10151476
15:00+26ю4746100 0.0 10132002
18:00+25ююв49525 0.0 1012828
21:00+19ю5146352 0.0 1011804
16 мая, вс
вс1600:00+15ююв27820 0.0 1012131
03:00+14ю289218 0.0 1012205
06:00+16ю38833 0.0 1011334
09:00+22ююз59620 0.0 10111188
12:00+24юз61042100 0.0 10102336
15:00+25юз610406 0.0 10102509
18:00+22юз5105270 0.0 10101424
21:00+15зюз29861 0.6 1011217